�N����,����,����,����,����,�C��,���x,�~����,�S�V����,�ő�u�ԕ���,,,,,
,,,,,,,,,����,����,����,�N��,,
yyyy/mm/dd,hh:mm:ss,(16),16����,m/s,��,%,mm,KW/�u,(16),16����,m/s,Time,,
2016/3/1,1:00:00,14,�k��,1.5,-5.1,98.7,0,0,13,���k��,3.3,8,,
2016/3/1,2:00:00,12,��,2.6,-8.7,97,0,0,12,��,3.5,49,,
2016/3/1,3:00:00,12,��,1.9,-12.8,94.9,0.5,0,12,��,3,51,,
2016/3/1,4:00:00,12,��,0.3,-12.8,93.9,0,0,12,��,6.8,58,,
2016/3/1,5:00:00,12,��,2.7,-14,93.6,0,0,2,�k��,3.8,17,,
2016/3/1,6:00:00,9,��쐼,1.5,-12,94.2,0,0,11,���쐼,5.2,31,,
2016/3/1,7:00:00,16,�k,1.7,-13.4,94,0,0.04,3,���k��,4.6,5,,
2016/3/1,8:00:00,14,�k��,4.4,-5.3,97.9,0,0.12,14,�k��,9.6,16,,
2016/3/1,9:00:00,13,���k��,4.8,-2.3,99.5,0,0.36,14,�k��,10.9,39,,
2016/3/1,10:00:00,14,�k��,7.5,0.4,100,0,0.66,14,�k��,16.2,42,,
2016/3/1,11:00:00,14,�k��,8.5,0.4,99.1,0,0.76,14,�k��,16.9,54,,
2016/3/1,12:00:00,14,�k��,8,-0.9,99.4,0,0.8,2,�k��,16.2,4,,
2016/3/1,13:00:00,14,�k��,8.3,-1.4,100,0,0.78,14,�k��,19.5,57,,
2016/3/1,14:00:00,14,�k��,9.2,-2,100,0,0.69,10,�쐼,23.1,3,,
2016/3/1,15:00:00,15,�k�k��,7.5,-2.1,100,0,0.55,15,�k�k��,15.6,8,,
2016/3/1,16:00:00,15,�k�k��,6.7,-3,98.4,0.5,0.36,15,�k�k��,15.7,28,,
2016/3/1,17:00:00,15,�k�k��,5.6,-3.7,97.4,0,0.14,9,��쐼,11.5,16,,
2016/3/1,18:00:00,14,�k��,3.8,-4,97,0,0.01,8,��,12.5,21,,
2016/3/1,19:00:00,14,�k��,4.7,-4.4,96.9,0,0,14,�k��,8.9,41,,
2016/3/1,20:00:00,15,�k�k��,3.5,-4.8,96.3,0,0,15,�k�k��,10.4,39,,
2016/3/1,21:00:00,15,�k�k��,3.6,-5.3,96.9,0,0,16,�k,7.6,49,,
2016/3/1,22:00:00,15,�k�k��,3.2,-5.9,96.3,0,0,15,�k�k��,7.4,34,,
2016/3/1,23:00:00,14,�k��,1.8,-7,95.5,0,0,1,�k�k��,4.9,10,,
2016/3/1,0:00:00,13,���k��,2.7,-7.6,96.6,0,0,16,�k,4.9,40,,
2016/3/2,1:00:00,14,�k��,2.8,-6.3,96,0,0,13,���k��,5.3,44,,
2016/3/2,2:00:00,14,�k��,2.4,-5.8,95.4,0,0,4,��,5.3,49,,
2016/3/2,3:00:00,14,�k��,2.5,-5.9,93.5,0,0,16,�k,8.5,20,,
2016/3/2,4:00:00,13,���k��,1.5,-10.9,90.4,0,0,13,���k��,4.7,0,,
2016/3/2,5:00:00,12,��,2.2,-12.4,90.3,0,0,12,��,3.4,3,,
2016/3/2,6:00:00,12,��,3,-13,91.7,0,0.01,12,��,3.5,43,,
2016/3/2,7:00:00,7,��쓌,0.7,-8.2,93.8,0,0.1,13,���k��,3.8,22,,
2016/3/2,8:00:00,10,�쐼,0.9,-8.1,92.3,0,0.21,7,��쓌,2,24,,
2016/3/2,9:00:00,12,��,0.3,-6,93.1,0,0.5,11,���쐼,2,13,,
2016/3/2,10:00:00,12,��,0.9,-3.5,93.8,0,0.66,13,���k��,2.5,33,,
2016/3/2,11:00:00,7,��쓌,2.6,-2.2,93.8,0,0.77,6,�쓌,4,50,,
2016/3/2,12:00:00,7,��쓌,2.5,-2.1,93.4,2,0.81,6,�쓌,4.4,12,,
2016/3/2,13:00:00,7,��쓌,2.2,-1.7,91.7,0.5,0.73,7,��쓌,4.8,30,,
2016/3/2,14:00:00,7,��쓌,2.9,-2.1,90.4,0.5,0.7,7,��쓌,4.6,30,,
2016/3/2,15:00:00,7,��쓌,2.5,-1.9,82,0.5,0.63,7,��쓌,4.3,19,,
2016/3/2,16:00:00,7,��쓌,1.7,-2.7,76.6,0.5,0.34,7,��쓌,3.8,11,,
2016/3/2,17:00:00,8,�É�,0.2,-7.3,74.7,0,0.09,7,��쓌,2.6,9,,
2016/3/2,18:00:00,12,��,1.4,-12.4,88.8,0,0.01,11,���쐼,1.8,56,,
2016/3/2,19:00:00,13,���k��,0.8,-12,88.6,0,0,13,���k��,2.5,35,,
2016/3/2,20:00:00,12,��,1.9,-13.2,89.4,0,0,12,��,2.6,40,,
2016/3/2,21:00:00,12,��,2.3,-16.7,88.1,0,0,12,��,3.3,48,,
2016/3/2,22:00:00,12,��,1,-15,87.3,0,0,13,���k��,3.8,26,,
2016/3/2,23:00:00,12,��,1.3,-15.1,91.6,0,0,12,��,4.4,26,,
2016/3/2,0:00:00,13,���k��,1,-18.5,88.7,0,0,12,��,3.4,12,,
2016/3/3,1:00:00,13,���k��,2.4,-16.9,89.9,0,0,12,��,3.7,19,,
2016/3/3,2:00:00,14,�k��,2.8,-14.4,90.6,0,0,11,���쐼,4,28,,
2016/3/3,3:00:00,12,��,2.5,-17.4,90.5,0,0,12,��,4.5,10,,
2016/3/3,4:00:00,13,���k��,3.2,-16.3,93,0,0,12,��,4.2,57,,
2016/3/3,5:00:00,12,��,2.9,-19.3,87.1,0,0,13,���k��,4,0,,
2016/3/3,6:00:00,12,��,2.3,-16.7,90.3,0,0,12,��,4.8,23,,
2016/3/3,7:00:00,11,���쐼,2.5,-15,91.1,0,0.04,13,���k��,3.1,58,,
2016/3/3,8:00:00,12,��,1.5,-12.3,92.3,0,0.13,9,��쐼,3.4,14,,
2016/3/3,9:00:00,13,���k��,2.1,-9.2,89.9,0,0.18,12,��,4.3,7,,
2016/3/3,10:00:00,14,�k��,0.5,-7.3,91.9,0,0.21,14,�k��,2,0,,
2016/3/3,11:00:00,2,�k��,2.8,-5.3,92,0,0.31,2,�k��,4.1,53,,
2016/3/3,12:00:00,1,�k�k��,2.6,-4.6,89,0,0.23,1,�k�k��,4.6,16,,
2016/3/3,13:00:00,1,�k�k��,2.4,-4.4,87.8,0,0.23,2,�k��,4.3,18,,
2016/3/3,14:00:00,2,�k��,2.3,-4,85.1,0,0.3,2,�k��,3.7,3,,
2016/3/3,15:00:00,2,�k��,2.3,-4,83.5,0,0.22,2,�k��,4,51,,
2016/3/3,16:00:00,1,�k�k��,1.8,-4,83.9,0,0.11,1,�k�k��,3.7,10,,
2016/3/3,17:00:00,14,�k��,2,-4.6,90.8,0,0.04,13,���k��,2.9,57,,
2016/3/3,18:00:00,13,���k��,2.8,-5.2,94.5,0,0.01,13,���k��,4.6,56,,
2016/3/3,19:00:00,13,���k��,2.3,-5.3,96.4,0,0,13,���k��,4.7,0,,
2016/3/3,20:00:00,13,���k��,2.2,-5.6,95.9,0,0,13,���k��,4.1,15,,
2016/3/3,21:00:00,13,���k��,1.1,-5.8,96.2,0,0,12,��,4.3,33,,
2016/3/3,22:00:00,13,���k��,1.5,-5.3,95.9,0,0,13,���k��,2.9,13,,
2016/3/3,23:00:00,14,�k��,1.6,-5.5,94,0,0,14,�k��,2.6,38,,
2016/3/3,0:00:00,14,�k��,1.4,-5.8,87.5,0,0,14,�k��,2.5,43,,
2016/3/4,1:00:00,13,���k��,1.5,-6.8,79.5,0,0,12,��,2.6,57,,
2016/3/4,2:00:00,13,���k��,2.6,-11.2,88.7,0,0,13,���k��,3.6,57,,
2016/3/4,3:00:00,13,���k��,3.2,-11,88.6,0,0,14,�k��,4.8,41,,
2016/3/4,4:00:00,13,���k��,3.2,-13.3,93.4,0,0,13,���k��,4.7,16,,
2016/3/4,5:00:00,13,���k��,2.1,-13.2,93.6,0,0,12,��,4.8,1,,
2016/3/4,6:00:00,13,���k��,1.8,-18.5,86.2,0,0.01,13,���k��,4.7,23,,
2016/3/4,7:00:00,12,��,2.7,-16.3,89,0,0.07,12,��,3.8,46,,
2016/3/4,8:00:00,13,���k��,2.5,-12.4,87,0,0.22,13,���k��,3.6,35,,
2016/3/4,9:00:00,13,���k��,0.8,-8.2,83.1,0,0.46,12,��,3.2,15,,
2016/3/4,10:00:00,5,���쓌,0.6,-2,75.1,0.5,0.68,10,�쐼,6.9,34,,
2016/3/4,11:00:00,8,��,2.1,-2.6,59.4,0,0.78,9,��쐼,3.3,58,,
2016/3/4,12:00:00,7,��쓌,2.6,-2.3,64.6,0.5,0.81,7,��쓌,4.4,51,,
2016/3/4,13:00:00,8,��,3.7,-2.3,67,0,0.79,7,��쓌,6.1,45,,
2016/3/4,14:00:00,8,��,3.2,-1.7,69.1,0,0.7,8,��,6.7,33,,
2016/3/4,15:00:00,9,��쐼,3.3,-1.6,72.3,0,0.57,9,��쐼,8.1,38,,
2016/3/4,16:00:00,9,��쐼,3.4,-2,73.2,0,0.37,9,��쐼,7.4,27,,
2016/3/4,17:00:00,11,���쐼,1.1,-6,86.5,0,0.15,10,�쐼,4.8,12,,
2016/3/4,18:00:00,11,���쐼,1,-13,87.2,0,0.01,13,���k��,2.5,10,,
2016/3/4,19:00:00,13,���k��,0.9,-11.1,93.1,0,0,14,�k��,2.3,49,,
2016/3/4,20:00:00,14,�k��,1.3,-8.9,95.7,0,0,14,�k��,2.5,55,,
2016/3/4,21:00:00,13,���k��,3.3,-5.8,73.3,0,0,13,���k��,5.2,56,,
2016/3/4,22:00:00,13,���k��,4.1,-4.7,68.9,0,0,14,�k��,6.1,51,,
2016/3/4,23:00:00,14,�k��,1.3,-8.8,70.3,0,0,13,���k��,5.3,0,,
2016/3/4,0:00:00,13,���k��,2.4,-6.5,73,0,0,12,��,3.6,52,,
2016/3/5,1:00:00,12,��,0.6,-14.6,85.9,0,0,13,���k��,3.8,49,,
2016/3/5,2:00:00,12,��,2.8,-15.8,91.9,0,0,12,��,3.9,57,,
2016/3/5,3:00:00,12,��,2.5,-16.3,85.9,0,0,12,��,4.2,39,,
2016/3/5,4:00:00,11,���쐼,1.2,-17.5,90.4,0,0,13,���k��,3.5,13,,
2016/3/5,5:00:00,13,���k��,2.9,-12.2,95.5,0,0,5,���쓌,4.6,35,,
2016/3/5,6:00:00,16,�k,0.9,-15.7,81.8,0,0.01,14,�k��,5.1,10,,
2016/3/5,7:00:00,13,���k��,2.3,-13.8,84.1,0,0.1,12,��,3.8,59,,
2016/3/5,8:00:00,12,��,2.3,-10.9,75.4,0,0.3,11,���쐼,5.2,19,,
2016/3/5,9:00:00,10,�쐼,0.4,-7.9,70,0,0.51,13,���k��,2.9,12,,
2016/3/5,10:00:00,10,�쐼,1,-2.8,67.6,0,0.67,5,���쓌,2.4,17,,
2016/3/5,11:00:00,9,��쐼,1.4,0.3,46.8,0,0.77,8,��,3.7,20,,
2016/3/5,12:00:00,9,��쐼,3.7,0.6,54.2,0,0.81,10,�쐼,6.4,54,,
2016/3/5,13:00:00,7,��쓌,3.4,0.4,59.7,0,0.78,6,�쓌,6.6,29,,
2016/3/5,14:00:00,7,��쓌,3.4,0.5,63.5,0,0.69,7,��쓌,5.6,50,,
2016/3/5,15:00:00,7,��쓌,3.4,-0.3,69.8,0,0.55,8,��,6.3,55,,
2016/3/5,16:00:00,8,��,2.7,-0.5,66.8,0,0.36,7,��쓌,6.6,7,,
2016/3/5,17:00:00,8,��,1.4,-1.5,74.5,0,0.14,7,��쓌,4.6,22,,
2016/3/5,18:00:00,16,�k,0.4,-6.6,94.9,0,0.01,9,��쐼,2.6,4,,
2016/3/5,19:00:00,16,�k,0.4,-9.9,96.1,0,0,12,��,4.8,20,,
2016/3/5,20:00:00,13,���k��,0.9,-12.9,93.3,0,0,2,�k��,2.1,15,,
2016/3/5,21:00:00,13,���k��,1.3,-12.9,94.2,0,0,12,��,2.5,42,,
2016/3/5,22:00:00,13,���k��,1.3,-13.8,91.8,0,0,12,��,2.7,13,,
2016/3/5,23:00:00,12,��,1.7,-16.3,90.4,0,0,12,��,2.8,46,,
2016/3/5,0:00:00,12,��,1.5,-15.6,90.6,0,0,12,��,3.1,8,,
2016/3/6,1:00:00,12,��,2.5,-13.7,92.7,0,0,12,��,3.1,54,,
2016/3/6,2:00:00,12,��,1.6,-11.8,93.6,0,0,12,��,3.3,39,,
2016/3/6,3:00:00,12,��,1.7,-10.5,93.6,0,0,13,���k��,2.7,10,,
2016/3/6,4:00:00,13,���k��,1.2,-10.3,94.4,0,0,11,���쐼,2.8,1,,
2016/3/6,5:00:00,13,���k��,1.9,-9.7,93,0,0,12,��,3,22,,
2016/3/6,6:00:00,13,���k��,1.3,-7.7,92.3,0,0.01,3,���k��,2.2,5,,
2016/3/6,7:00:00,13,���k��,2,-5.8,85,0,0.02,14,�k��,4.1,22,,
2016/3/6,8:00:00,14,�k��,1.9,-4.6,81.4,0,0.05,13,���k��,3.9,27,,
2016/3/6,9:00:00,14,�k��,2,-4.2,87.6,0,0.17,16,�k,3.8,26,,
2016/3/6,10:00:00,13,���k��,1.7,-3.8,94.5,0,0.15,13,���k��,3.7,31,,
2016/3/6,11:00:00,14,�k��,0.9,-2.9,96.6,0,0.2,14,�k��,1.9,12,,
2016/3/6,12:00:00,16,�k,0.3,-1.8,96.9,0.5,0.2,12,��,2.1,36,,
2016/3/6,13:00:00,2,�k��,2.1,-0.4,98,0,0.22,2,�k��,2.8,59,,
2016/3/6,14:00:00,2,�k��,2.1,0.4,98.2,0.5,0.16,2,�k��,3.5,6,,
2016/3/6,15:00:00,2,�k��,2.5,0.8,98.9,0.5,0.1,2,�k��,3.7,53,,
2016/3/6,16:00:00,14,�k��,1.5,-0.4,99.4,0.5,0.06,14,�k��,2.7,47,,
2016/3/6,17:00:00,14,�k��,2.6,-1.2,97.5,0,0.02,12,��,4.4,53,,
2016/3/6,18:00:00,13,���k��,3.4,-1.1,96.5,0,0.01,12,��,6,45,,
2016/3/6,19:00:00,14,�k��,2.9,-1.2,96.3,0,0,11,���쐼,6.2,51,,
2016/3/6,20:00:00,13,���k��,2.8,-0.9,96.8,0.5,0,13,���k��,4.9,55,,
2016/3/6,21:00:00,14,�k��,2,-0.7,96.8,0,0,13,���k��,6.4,28,,
2016/3/6,22:00:00,13,���k��,1.2,-0.4,96.6,0,0,13,���k��,3.6,13,,
2016/3/6,23:00:00,14,�k��,1,-0.4,96.6,0,0,13,���k��,2.5,9,,
2016/3/6,0:00:00,14,�k��,1.5,-0.4,97.3,0.5,0,4,��,2.5,59,,
2016/3/7,1:00:00,14,�k��,0.7,-0.3,98.8,0,0,16,�k,2.5,0,,
2016/3/7,2:00:00,14,�k��,1.6,-0.1,100,0,0,16,�k,2.9,58,,
2016/3/7,3:00:00,13,���k��,1.9,0.4,100,0,0,12,��,3.8,4,,
2016/3/7,4:00:00,11,���쐼,1.8,0.3,100,0.5,0,10,�쐼,2.7,59,,
2016/3/7,5:00:00,14,�k��,0.7,0.6,100,0,0,10,�쐼,3.4,1,,
2016/3/7,6:00:00,8,��,3.5,7.2,99,0,0.01,8,��,6.1,34,,
2016/3/7,7:00:00,2,�k��,2.5,1,95.3,0,0.07,8,��,6.4,21,,
2016/3/7,8:00:00,2,�k��,2.1,2.2,95.7,0,0.26,3,���k��,4.7,0,,
2016/3/7,9:00:00,3,���k��,3.1,6,82.2,0,0.48,3,���k��,4.8,9,,
2016/3/7,10:00:00,5,���쓌,1.2,8.1,67.9,0,0.65,14,�k��,3.8,37,,
2016/3/7,11:00:00,4,��,1.5,10.7,54.9,0,0.77,7,��쓌,3.8,34,,
2016/3/7,12:00:00,3,���k��,2.2,7.6,75.4,0,0.8,4,��,5.2,23,,
2016/3/7,13:00:00,2,�k��,1.9,7.5,69.4,0,0.78,2,�k��,3.4,37,,
2016/3/7,14:00:00,4,��,2.5,6.3,66.6,0,0.68,5,���쓌,4.8,59,,
2016/3/7,15:00:00,4,��,1.6,6.9,67.9,0,0.52,6,�쓌,4.2,5,,
2016/3/7,16:00:00,9,��쐼,0.7,4.6,69.3,0,0.33,8,��,4.2,28,,
2016/3/7,17:00:00,9,��쐼,1.7,4.1,73,0,0.12,10,�쐼,3,59,,
2016/3/7,18:00:00,13,���k��,0.3,0.5,88.4,0,0.01,10,�쐼,2.5,0,,
2016/3/7,19:00:00,12,��,2,-1.5,93.1,0,0,12,��,2.5,54,,
2016/3/7,20:00:00,12,��,1.6,-0.4,90.3,0,0,13,���k��,3.3,25,,
2016/3/7,21:00:00,10,�쐼,0.8,-0.5,91.4,0,0,16,�k,2.5,20,,
2016/3/7,22:00:00,14,�k��,1.6,0.5,84.1,0,0,12,��,2.5,51,,
2016/3/7,23:00:00,3,���k��,1.8,0.7,83.6,0,0,3,���k��,3.2,53,,
2016/3/7,0:00:00,1,�k�k��,0.8,-1.1,95,0,0,2,�k��,3.5,2,,
2016/3/8,1:00:00,2,�k��,1.5,1.1,85.7,0,0,3,���k��,4.3,30,,
2016/3/8,2:00:00,2,�k��,1.7,1.2,87.9,0,0,2,�k��,3.1,13,,
2016/3/8,3:00:00,3,���k��,3.4,1.3,88.8,0,0,3,���k��,6.4,47,,
2016/3/8,4:00:00,2,�k��,3.5,1,94.6,0,0,2,�k��,5.7,36,,
2016/3/8,5:00:00,1,�k�k��,2.2,1.2,92.9,0,0,2,�k��,5.2,3,,
2016/3/8,6:00:00,14,�k��,1.3,1.2,93.9,0,0,15,�k�k��,3.3,24,,
2016/3/8,7:00:00,15,�k�k��,1.1,1.3,92.4,0,0.03,13,���k��,3.1,31,,
2016/3/8,8:00:00,1,�k�k��,2.2,1.9,84.7,0,0.09,2,�k��,4.1,59,,
2016/3/8,9:00:00,2,�k��,2.9,2.3,80.3,0,0.15,1,�k�k��,5.3,59,,
2016/3/8,10:00:00,2,�k��,2.1,2.3,77.8,0,0.3,2,�k��,5.1,35,,
2016/3/8,11:00:00,3,���k��,3.3,2.9,72.5,0,0.37,3,���k��,4.4,57,,
2016/3/8,12:00:00,4,��,3.9,3.1,70.7,0,0.68,4,��,6.5,41,,
2016/3/8,13:00:00,4,��,3.4,3.2,77.1,0,0.68,4,��,6.2,26,,
2016/3/8,14:00:00,5,���쓌,2.9,2.2,80.3,0,0.66,5,���쓌,4.7,0,,
2016/3/8,15:00:00,7,��쓌,1.7,1.7,81,0,0.52,5,���쓌,4,1,,
2016/3/8,16:00:00,7,��쓌,2,1.2,85.4,0,0.26,8,��,3.6,53,,
2016/3/8,17:00:00,3,���k��,1.6,0.8,93,0,0.04,8,��,3.4,16,,
2016/3/8,18:00:00,6,�쓌,0.6,0.5,95.4,0,0.01,2,�k��,3.3,30,,
2016/3/8,19:00:00,9,��쐼,2.7,3.9,84.8,0,0,9,��쐼,6.2,53,,
2016/3/8,20:00:00,11,���쐼,9.7,5.5,57.3,0,0,10,�쐼,15.5,56,,
2016/3/8,21:00:00,11,���쐼,10.8,3.8,53.6,0,0,12,��,19.1,33,,
2016/3/8,22:00:00,11,���쐼,8.2,2.6,55.6,0,0,12,��,17.6,24,,
2016/3/8,23:00:00,11,���쐼,9,1.6,61,0,0,10,�쐼,14.6,49,,
2016/3/8,0:00:00,12,��,5.9,-0.6,67.5,0,0,11,���쐼,11.2,12,,
2016/3/9,1:00:00,12,��,3,-1.7,69.9,0,0,11,���쐼,7.4,2,,
2016/3/9,2:00:00,12,��,2,-3.1,58.8,0,0,11,���쐼,5.2,17,,
2016/3/9,3:00:00,12,��,1.2,-5.7,71.4,0,0,13,���k��,4.4,0,,
2016/3/9,4:00:00,13,���k��,0.6,-7,71.1,0,0,10,�쐼,3.1,27,,
2016/3/9,5:00:00,12,��,1.8,-8.6,66,0,0,13,���k��,3.2,58,,
2016/3/9,6:00:00,11,���쐼,1.3,-10.7,73.8,0,0.01,14,�k��,3.4,11,,
2016/3/9,7:00:00,13,���k��,2.2,-5.5,54.5,0,0.08,14,�k��,4,51,,
2016/3/9,8:00:00,11,���쐼,2.7,-1.2,49.4,0,0.34,12,��,5.4,58,,
2016/3/9,9:00:00,13,���k��,3.1,0.9,40,0,0.6,12,��,7,43,,
2016/3/9,10:00:00,13,���k��,3.1,1.3,32.4,0,0.62,14,�k��,6.1,59,,
2016/3/9,11:00:00,13,���k��,2.8,1.9,33.9,0,0.74,13,���k��,8.3,4,,
2016/3/9,12:00:00,1,�k�k��,1.7,2.1,38.5,0,0.78,13,���k��,7.7,1,,
2016/3/9,13:00:00,14,�k��,2.4,2,36.6,0,0.7,12,��,7.4,40,,
2016/3/9,14:00:00,15,�k�k��,1.1,2.4,38.6,0,0.53,15,�k�k��,4.3,30,,
2016/3/9,15:00:00,13,���k��,2.3,1.4,54.3,0,0.31,11,���쐼,6.9,8,,
2016/3/9,16:00:00,16,�k,2,1.5,48.6,0,0.23,14,�k��,5.1,29,,
2016/3/9,17:00:00,13,���k��,0.9,0.2,67.8,0,0.1,12,��,3.3,48,,
2016/3/9,18:00:00,12,��,2.5,-0.4,61.5,0,0.01,11,���쐼,3.8,18,,
2016/3/9,19:00:00,14,�k��,1.3,-3.7,78.7,0,0,14,�k��,3.6,6,,
2016/3/9,20:00:00,14,�k��,1.8,-3.4,76.2,0,0,11,���쐼,2.5,24,,
2016/3/9,21:00:00,9,��쐼,0.5,-6.2,77.2,0,0,14,�k��,2.3,0,,
2016/3/9,22:00:00,13,���k��,2.5,-6.5,80.5,0,0,12,��,3.6,55,,
2016/3/9,23:00:00,13,���k��,3.2,-5.3,78.3,0,0,5,���쓌,4.5,50,,
2016/3/9,0:00:00,11,���쐼,0.7,-10.7,85.7,0,0,13,���k��,3.9,1,,
2016/3/10,1:00:00,12,��,0.8,-12,87.9,0,0,14,�k��,2.2,11,,
2016/3/10,2:00:00,11,���쐼,1,-10.3,86.8,0,0,12,��,2.5,38,,
2016/3/10,3:00:00,12,��,2.4,-11.7,82,0,0,12,��,3.4,59,,
2016/3/10,4:00:00,13,���k��,3.8,-8.6,79.2,0,0,1,�k�k��,4.7,55,,
2016/3/10,5:00:00,14,�k��,3.4,-8.8,77.4,0,0,13,���k��,5.2,9,,
2016/3/10,6:00:00,13,���k��,3.6,-9.5,72.8,0,0.01,13,���k��,5,57,,
2016/3/10,7:00:00,10,�쐼,0.5,-11.2,76.1,0,0.12,9,��쐼,2.8,57,,
2016/3/10,8:00:00,12,��,0.8,-7.6,66.6,0,0.34,12,��,2,34,,
2016/3/10,9:00:00,6,�쓌,0.3,-0.4,52.4,0,0.55,9,��쐼,2,29,,
2016/3/10,10:00:00,4,��,1,0.3,65.8,0,0.63,4,��,4.7,15,,
2016/3/10,11:00:00,5,���쓌,1.9,-0.3,64.6,0,0.67,6,�쓌,3.4,23,,
2016/3/10,12:00:00,6,�쓌,2.1,-0.7,64.1,0,0.71,6,�쓌,3.3,59,,
2016/3/10,13:00:00,7,��쓌,2.3,-0.8,56.6,0,0.77,7,��쓌,4,7,,
2016/3/10,14:00:00,7,��쓌,2.3,-0.7,61.2,0,0.66,7,��쓌,4,12,,
2016/3/10,15:00:00,7,��쓌,2.5,-0.9,54.9,0,0.45,7,��쓌,4.9,59,,
2016/3/10,16:00:00,7,��쓌,2,-1.2,64.6,0,0.32,8,��,5,21,,
2016/3/10,17:00:00,8,��,1.4,-1.8,71.5,0,0.12,7,��쓌,4.3,7,,
2016/3/10,18:00:00,7,�É�,0.1,-4.5,83.1,0,0.01,8,��,2.3,1,,
2016/3/10,19:00:00,14,�k��,0.3,-7.6,89.5,0,0,14,�k��,2.9,11,,
2016/3/10,20:00:00,12,��,0.8,-8.6,89.2,0,0,12,��,2.1,10,,
2016/3/10,21:00:00,14,�k��,1.1,-8.4,90.6,0,0,12,��,2.5,23,,
2016/3/10,22:00:00,13,���k��,1.8,-9,93.5,0,0,13,���k��,2.5,49,,
2016/3/10,23:00:00,13,���k��,2.4,-8.9,95.4,0,0,13,���k��,3.3,55,,
2016/3/10,0:00:00,12,��,1.7,-10.1,93.9,0,0,12,��,3.5,12,,
2016/3/11,1:00:00,12,��,1.6,-11.1,93.7,0,0,13,���k��,3,48,,
2016/3/11,2:00:00,12,��,1.8,-11.5,94.2,0,0,12,��,2.5,53,,
2016/3/11,3:00:00,11,���쐼,1.8,-12.3,93.5,0,0,11,���쐼,3.8,32,,
2016/3/11,4:00:00,12,��,1.7,-12.8,92.1,0,0,2,�k��,3.7,42,,
2016/3/11,5:00:00,12,��,2.2,-13.4,92.1,0,0,12,��,3.2,37,,
2016/3/11,6:00:00,12,��,2,-13.5,93,0,0.01,13,���k��,3.7,18,,
2016/3/11,7:00:00,12,��,1.7,-11.4,87.9,0,0.12,1,�k�k��,4.9,39,,
2016/3/11,8:00:00,9,��쐼,0.4,-8.4,84,0,0.35,13,���k��,2.8,48,,
2016/3/11,9:00:00,11,���쐼,0.9,-2,63.5,0,0.62,12,��,2.6,41,,
2016/3/11,10:00:00,6,�쓌,1.9,-0.2,57.4,0,0.71,7,��쓌,3.3,58,,
2016/3/11,11:00:00,5,���쓌,2.7,1.2,67.2,0,0.8,5,���쓌,4.2,43,,
2016/3/11,12:00:00,5,���쓌,3.8,1.5,58.8,0,0.86,6,�쓌,6.1,40,,
2016/3/11,13:00:00,10,�쐼,3.8,1.6,47.8,0,0.83,10,�쐼,6.9,44,,
2016/3/11,14:00:00,13,���k��,1.9,1.9,47.7,0,0.73,10,�쐼,7,17,,
2016/3/11,15:00:00,11,���쐼,3.6,1.9,52.9,0,0.51,12,��,6.1,54,,
2016/3/11,16:00:00,12,��,4.5,1.5,51,0,0.47,11,���쐼,8.5,2,,
2016/3/11,17:00:00,14,�k��,3.3,-0.3,61.8,0,0.22,12,��,8.4,5,,
2016/3/11,18:00:00,14,�k��,2.4,-1.6,69.6,0,0.02,14,�k��,6.3,13,,
2016/3/11,19:00:00,14,�k��,2.3,-2.1,62.9,0,0,13,���k��,5.2,6,,
2016/3/11,20:00:00,14,�k��,2,-3.2,65.2,0,0,1,�k�k��,4.8,0,,
2016/3/11,21:00:00,14,�k��,1.8,-3.6,60.4,0,0,14,�k��,3.5,31,,
2016/3/11,22:00:00,14,�k��,2.4,-3.9,59.8,0,0,15,�k�k��,4.6,59,,
2016/3/11,23:00:00,12,��,2.5,-5.7,65.9,0,0,15,�k�k��,4.8,4,,
2016/3/11,0:00:00,13,���k��,1.7,-7.6,72.1,0,0,13,���k��,3.6,0,,
2016/3/12,1:00:00,12,��,2,-10.4,84.2,0,0,13,���k��,2.9,54,,
2016/3/12,2:00:00,13,���k��,1,-10.7,82.3,0,0,12,��,3,0,,
2016/3/12,3:00:00,12,��,1.7,-13.3,85.5,0,0,12,��,3.1,46,,
2016/3/12,4:00:00,13,���k��,1.2,-14.3,87.2,0,0,12,��,3.1,34,,
2016/3/12,5:00:00,12,��,2.9,-13.4,88.3,0,0,10,�쐼,3.7,57,,
2016/3/12,6:00:00,12,��,2.6,-13.6,89.1,0,0.01,11,���쐼,3.3,49,,
2016/3/12,7:00:00,12,��,2.6,-12.3,83.9,0,0.14,11,���쐼,3.7,26,,
2016/3/12,8:00:00,16,�k,0.4,-8,76.2,0,0.36,13,���k��,3.4,36,,
2016/3/12,9:00:00,12,��,0.3,-3,69.2,0,0.57,12,��,7.1,26,,
2016/3/12,10:00:00,3,���k��,0.9,0.8,52.5,0,0.72,3,���k��,2.1,30,,
2016/3/12,11:00:00,6,�쓌,2.5,0.4,49.4,0,0.81,6,�쓌,4.5,48,,
2016/3/12,12:00:00,6,�쓌,2.6,0.2,58.6,0,0.81,6,�쓌,5.6,3,,
2016/3/12,13:00:00,6,�쓌,2.7,1,47.6,0,0.79,6,�쓌,4.4,51,,
2016/3/12,14:00:00,6,�쓌,3.4,0.8,61,0,0.73,6,�쓌,4.8,30,,
2016/3/12,15:00:00,5,���쓌,3.6,0.7,63.6,0,0.57,5,���쓌,5.4,43,,
2016/3/12,16:00:00,4,��,2.9,-0.4,73.8,0,0.33,4,��,4.6,31,,
2016/3/12,17:00:00,2,�k��,1.8,-0.7,75.4,0,0.08,4,��,3.4,5,,
2016/3/12,18:00:00,13,���k��,0.6,-5.3,86.9,0,0.02,1,�k�k��,3.1,10,,
2016/3/12,19:00:00,13,���k��,0.5,-5,86.4,0,0,12,��,1.9,7,,
2016/3/12,20:00:00,13,���k��,2.1,-4.8,81.9,0,0,13,���k��,3.9,35,,
2016/3/12,21:00:00,12,��,2.2,-5.4,82.6,0,0,13,���k��,3.2,57,,
2016/3/12,22:00:00,13,���k��,0.9,-9,85,0,0,13,���k��,3.2,0,,
2016/3/12,23:00:00,12,��,0.7,-9.8,93.7,0,0,12,��,2.1,39,,
2016/3/12,0:00:00,13,���k��,1,-9.7,95.2,0,0,11,���쐼,2.1,58,,
2016/3/13,1:00:00,11,���쐼,1,-12.7,92.6,0,0,12,��,2.1,40,,
2016/3/13,2:00:00,12,��,2.2,-13.1,91.7,0,0,12,��,2.8,34,,
2016/3/13,3:00:00,12,��,1.6,-12.1,94.8,0,0,13,���k��,2.4,9,,
2016/3/13,4:00:00,12,��,2.1,-11,93.8,0,0,11,���쐼,3.4,21,,
2016/3/13,5:00:00,13,���k��,1.9,-12.5,90.4,0,0,13,���k��,3.9,2,,
2016/3/13,6:00:00,13,���k��,3.4,-9.2,92.8,0,0.01,13,���k��,5.2,54,,
2016/3/13,7:00:00,13,���k��,3.4,-7.6,78.3,0,0.15,16,�k,6.1,42,,
2016/3/13,8:00:00,12,��,1.1,-5.8,72.8,0,0.36,12,��,4.9,11,,
2016/3/13,9:00:00,13,�É�,0.2,-2.5,64.6,0,0.57,10,�쐼,2.4,3,,
2016/3/13,10:00:00,4,��,0.9,1.1,63.8,0,0.72,3,���k��,1.8,39,,
2016/3/13,11:00:00,4,��,1.9,1.2,71.1,0,0.81,5,���쓌,3.2,25,,
2016/3/13,12:00:00,5,���쓌,2.5,-0.6,71.5,0,0.85,5,���쓌,3.5,59,,
2016/3/13,13:00:00,6,�쓌,2.5,-0.7,75.7,0,0.82,6,�쓌,4.2,22,,
2016/3/13,14:00:00,6,�쓌,2.3,0.1,81.6,0,0.72,5,���쓌,4.4,14,,
2016/3/13,15:00:00,6,�쓌,2.5,0.2,82.6,0,0.49,6,�쓌,5.1,56,,
2016/3/13,16:00:00,7,��쓌,2.7,0.7,78.2,0,0.22,7,��쓌,4.5,53,,
2016/3/13,17:00:00,8,��,1.8,0.3,79,0,0.2,8,��,4.9,21,,
2016/3/13,18:00:00,7,��쓌,2.5,0.2,84.2,0,0.02,9,��쐼,4.7,36,,
2016/3/13,19:00:00,7,��쓌,0.7,-0.9,90,0,0,6,�쓌,5.6,8,,
2016/3/13,20:00:00,11,���쐼,0.9,-4.1,93.6,0,0,8,��,3.7,4,,
2016/3/13,21:00:00,16,�k,0.6,-4.4,95,0,0,2,�k��,3,47,,
2016/3/13,22:00:00,13,���k��,0.5,-3.9,95.8,0,0,13,���k��,2.8,13,,
2016/3/13,23:00:00,14,�k��,0.8,-3.4,95.8,0,0,14,�k��,2,46,,
2016/3/13,0:00:00,14,�k��,1.4,-1.6,93.9,0,0,14,�k��,2.7,23,,
2016/3/14,1:00:00,14,�k��,2.2,-1.6,96,0,0,11,���쐼,4,20,,
2016/3/14,2:00:00,14,�k��,2.5,-1.7,94.8,0,0,13,���k��,4.8,40,,
2016/3/14,3:00:00,13,���k��,2.6,-1.6,93,0,0,14,�k��,5,42,,
2016/3/14,4:00:00,14,�k��,1.1,-2.4,91.1,0,0,2,�k��,3.7,19,,
2016/3/14,5:00:00,14,�k��,1.3,-2.9,91,0,0,14,�k��,2.6,50,,
2016/3/14,6:00:00,14,�k��,1.5,-3.2,91.9,0,0.01,14,�k��,3.2,35,,
2016/3/14,7:00:00,12,��,1.3,-5.4,95,0,0.09,13,���k��,2.5,24,,
2016/3/14,8:00:00,13,���k��,1.8,-1.6,83.4,0,0.31,14,�k��,2.5,57,,
2016/3/14,9:00:00,9,�É�,0.1,0.6,78.8,0,0.53,14,�k��,2.1,2,,
2016/3/14,10:00:00,4,��,2.2,2.9,83.8,0,0.69,5,���쓌,2.9,59,,
2016/3/14,11:00:00,5,���쓌,2.2,1.4,82.9,0,0.79,6,�쓌,4.4,27,,
2016/3/14,12:00:00,6,�쓌,2.1,0.4,87.1,0,0.85,6,�쓌,3.9,39,,
2016/3/14,13:00:00,5,���쓌,2.2,-0.7,94.2,0,0.67,6,�쓌,4.3,25,,
2016/3/14,14:00:00,6,�쓌,2.7,-0.9,95.9,0,0.57,5,���쓌,4.1,58,,
2016/3/14,15:00:00,5,���쓌,1.7,-0.7,97.8,0,0.33,6,�쓌,3.7,7,,
2016/3/14,16:00:00,2,�k��,1,-0.7,98.8,0,0.17,6,�쓌,3.8,16,,
2016/3/14,17:00:00,2,�k��,1.2,-0.8,99.1,0,0.07,2,�k��,1.8,52,,
2016/3/14,18:00:00,2,�k��,1.2,-0.8,99.2,0,0.01,2,�k��,2.1,59,,
2016/3/14,19:00:00,1,�k�k��,1.8,-1.3,99.4,0,0,3,���k��,2.9,35,,
2016/3/14,20:00:00,2,�k��,2.2,-1.6,99.3,0,0,1,�k�k��,3.5,25,,
2016/3/14,21:00:00,13,���k��,1.8,-1.6,99.4,0,0,14,�k��,3.7,22,,
2016/3/14,22:00:00,16,�k,2.4,-0.6,98.9,0,0,15,�k�k��,4.1,56,,
2016/3/14,23:00:00,16,�k,2.3,-0.4,95.2,0,0,16,�k,4.6,34,,
2016/3/14,0:00:00,14,�k��,1.5,-0.7,94.7,0,0,15,�k�k��,3.5,13,,
2016/3/15,1:00:00,14,�k��,1.8,-0.8,94.9,0,0,14,�k��,3.6,48,,
2016/3/15,2:00:00,13,���k��,1.8,-1.1,94.7,0,0,14,�k��,3.3,27,,
2016/3/15,3:00:00,13,���k��,2,-1.3,95.7,0,0,1,�k�k��,3.1,54,,
2016/3/15,4:00:00,12,��,2.5,-1.9,95.1,0,0,12,��,3.8,59,,
2016/3/15,5:00:00,13,���k��,3.6,-2.2,95.1,0,0,13,���k��,5.6,49,,
2016/3/15,6:00:00,13,���k��,2,-4,96.3,0,0.01,13,���k��,5,1,,
2016/3/15,7:00:00,13,���k��,2.5,-2.3,93.2,0,0.07,14,�k��,5.6,34,,
2016/3/15,8:00:00,14,�k��,2.5,-0.4,81.6,0,0.24,13,���k��,5,4,,
2016/3/15,9:00:00,16,�k,4,1.9,62.9,0,0.52,1,�k�k��,7.4,58,,
2016/3/15,10:00:00,14,�k��,4.2,2,52.7,0,0.72,13,���k��,9.2,10,,
2016/3/15,11:00:00,15,�k�k��,3.8,2.5,47.7,0,0.83,13,���k��,9.2,26,,
2016/3/15,12:00:00,15,�k�k��,4.4,3,41.2,0,0.87,14,�k��,11,48,,
2016/3/15,13:00:00,15,�k�k��,5.3,3.2,41,0,0.83,1,�k�k��,11.2,54,,
2016/3/15,14:00:00,14,�k��,7.3,2.7,44,0,0.72,16,�k,12.3,54,,
2016/3/15,15:00:00,14,�k��,7.9,2.4,46.1,0,0.62,15,�k�k��,12.8,55,,
2016/3/15,16:00:00,15,�k�k��,6.2,1.9,50.1,0,0.42,1,�k�k��,13.5,7,,
2016/3/15,17:00:00,15,�k�k��,6.4,0.8,53.7,0,0.16,15,�k�k��,13.3,57,,
2016/3/15,18:00:00,15,�k�k��,4,-0.3,55.3,0,0.02,15,�k�k��,12.4,0,,
2016/3/15,19:00:00,15,�k�k��,3.3,-1,59.9,0,0,14,�k��,7.7,9,,
2016/3/15,20:00:00,15,�k�k��,2.1,-2.3,64.8,0,0,1,�k�k��,5.6,38,,
2016/3/15,21:00:00,14,�k��,1.6,-4,70.3,0,0,14,�k��,3.4,48,,
2016/3/15,22:00:00,15,�k�k��,2.5,-3.1,64.9,0,0,16,�k,4.5,27,,
2016/3/15,23:00:00,14,�k��,1.7,-3.5,70.8,0,0,15,�k�k��,5,29,,
2016/3/15,0:00:00,13,���k��,1.7,-7,81.5,0,0,16,�k,3,11,,
2016/3/16,1:00:00,12,��,2.4,-9,84.3,0,0,12,��,3.4,50,,
2016/3/16,2:00:00,10,�쐼,1.3,-9,90.3,0,0,8,��,3.3,59,,
2016/3/16,3:00:00,12,��,2.5,-10,91.4,0,0,9,��쐼,3.1,1,,
2016/3/16,4:00:00,13,���k��,1.7,-10.2,93.2,0,0,12,��,3.2,48,,
2016/3/16,5:00:00,12,��,1.9,-10.6,89.9,0,0,12,��,2.7,41,,
2016/3/16,6:00:00,12,��,2.5,-10.3,90.4,0,0.01,12,��,4.2,20,,
2016/3/16,7:00:00,13,���k��,2,-6.9,82.1,0,0.15,12,��,4.1,17,,
2016/3/16,8:00:00,13,���k��,0.8,-4.1,75,0,0.37,12,��,3.5,26,,
2016/3/16,9:00:00,5,���쓌,0.7,2.5,68.6,0,0.58,13,���k��,3.7,1,,
2016/3/16,10:00:00,6,�쓌,1.3,1.9,68.9,0,0.72,6,�쓌,4.2,17,,
2016/3/16,11:00:00,2,�k��,1.2,2.5,68.9,0,0.82,2,�k��,2.8,43,,
2016/3/16,12:00:00,10,�쐼,6.3,6.8,45.1,0,0.85,8,��,10.1,18,,
2016/3/16,13:00:00,8,��,4,6.8,49.2,0,0.82,9,��쐼,12,7,,
2016/3/16,14:00:00,8,��,2.9,7.5,50,0,0.73,8,��,7,28,,
2016/3/16,15:00:00,11,���쐼,7.2,7.4,54.4,0,0.59,11,���쐼,10.3,53,,
2016/3/16,16:00:00,10,�쐼,5.1,7.2,57.7,0,0.15,10,�쐼,9.8,1,,
2016/3/16,17:00:00,10,�쐼,4.3,7.1,60.6,0,0.05,10,�쐼,8,17,,
2016/3/16,18:00:00,10,�쐼,2.6,6.6,64,0,0.01,9,��쐼,8.2,8,,
2016/3/16,19:00:00,10,�쐼,2.5,7,64.1,0,0,10,�쐼,6.8,17,,
2016/3/16,20:00:00,10,�쐼,3.3,7,65.2,0,0,9,��쐼,6.3,49,,
2016/3/16,21:00:00,10,�쐼,4.3,6.7,68.5,0,0,11,���쐼,6.5,43,,
2016/3/16,22:00:00,9,��쐼,2.7,6.2,66.7,0,0,10,�쐼,7.4,35,,
2016/3/16,23:00:00,8,��,2.5,5.8,68.2,0,0,9,��쐼,4.4,2,,
2016/3/16,0:00:00,8,��,1.9,4.8,67.4,0,0,7,��쓌,3.9,40,,
2016/3/17,1:00:00,10,�쐼,3.5,6.3,64.6,0,0,11,���쐼,5.1,53,,
2016/3/17,2:00:00,10,�쐼,4,7.2,58.5,0,0,10,�쐼,8.6,56,,
2016/3/17,3:00:00,10,�쐼,3.1,4.9,65.5,0,0,10,�쐼,7.9,28,,